When you browse on this site, cookies collect data to enhance your experience and personalize the content and advertising you see.
Visit our Privacy Policy to learn more. By continuing to use the site, you agree to this use of cookies and data.
  • In Switzerland
  • List of Countries
  • For 7 days
  • Water Temperature
  • Satellite Maps
  • Weather Map
  • Weather Widgets
  • user-avatar
    Login

    Hourly Weather Kaski

    Today, 20 February, Wednesday

    Time Temperature Precipitation Wind Pressure Humidity
    00:00 +3°C° 0 mm 5 mps 747 mmHg 88%
    01:00 +3°C° 0 mm 4 mps 747 mmHg 85%
    02:00 +2°C° 0 mm 5 mps 747 mmHg 86%
    03:00 +2°C° 0 mm 5 mps 747 mmHg 88%
    04:00 +1°C° 0 mm 5 mps 748 mmHg 89%
    05:00 +1°C° 0 mm 5 mps 748 mmHg 89%
    06:00 +1°C° 0 mm 5 mps 748 mmHg 90%
    07:00 +1°C° 0 mm 5 mps 748 mmHg 90%
    08:00 +2°C° 0 mm 5 mps 749 mmHg 88%
    09:00 +2°C° 0 mm 6 mps 749 mmHg 85%
    10:00 +2°C° 0 mm 6 mps 750 mmHg 82%
    11:00 +3°C° 0 mm 6 mps 750 mmHg 80%
    12:00 +3°C° 0 mm 6 mps 750 mmHg 78%
    13:00 +3°C° 0 mm 6 mps 750 mmHg 75%
    14:00 +3°C° 0 mm 6 mps 750 mmHg 74%
    15:00 +5°C° 0 mm 5 mps 750 mmHg 73%
    16:00 +5°C° 0 mm 5 mps 751 mmHg 72%
    17:00 +5°C° 0 mm 4 mps 751 mmHg 75%
    18:00 +4°C° 0 mm 4 mps 751 mmHg 77%
    19:00 +4°C° 0 mm 3 mps 751 mmHg 80%
    20:00 +4°C° 0 mm 3 mps 752 mmHg 82%
    21:00 +4°C° 0 mm 3 mps 752 mmHg 83%
    22:00 +4°C° 0 mm 3 mps 752 mmHg 85%
    23:00 +4°C° 0 mm 3 mps 752 mmHg 85%

    Tomorrow, 21 February, Thursday

    Time Temperature Precipitation Wind Pressure Humidity
    00:00 +4°C° 0 mm 3 mps 753 mmHg 85%
    01:00 +4°C° 0 mm 3 mps 753 mmHg 86%
    02:00 +4°C° 0 mm 3 mps 753 mmHg 87%
    03:00 +4°C° 0 mm 3 mps 753 mmHg 88%
    04:00 +3°C° 0 mm 4 mps 753 mmHg 89%
    05:00 +3°C° 0 mm 4 mps 753 mmHg 88%
    06:00 +3°C° 0 mm 4 mps 753 mmHg 86%
    07:00 +3°C° 0 mm 4 mps 752 mmHg 85%
    08:00 +3°C° 0.1 mm 4 mps 752 mmHg 83%
    09:00 +2°C° 0.1 mm 5 mps 752 mmHg 82%
    10:00 +3°C° 0.1 mm 5 mps 752 mmHg 80%
    11:00 +3°C° 0.5 mm 5 mps 752 mmHg 80%
    12:00 +4°C° 0.5 mm 6 mps 752 mmHg 79%
    13:00 +4°C° 0.5 mm 6 mps 751 mmHg 78%
    14:00 +4°C° 0.9 mm 6 mps 751 mmHg 80%
    15:00 +4°C° 0.9 mm 6 mps 751 mmHg 82%
    16:00 +4°C° 0.9 mm 6 mps 750 mmHg 83%
    17:00 +4°C° 0.7 mm 6 mps 750 mmHg 85%
    18:00 +4°C° 0.7 mm 6 mps 750 mmHg 86%
    19:00 +4°C° 0.7 mm 6 mps 750 mmHg 88%
    20:00 +4°C° 0.5 mm 6 mps 750 mmHg 89%
    21:00 +4°C° 0.5 mm 6 mps 750 mmHg 90%
    22:00 +5°C° 0.5 mm 6 mps 749 mmHg 91%
    23:00 +5°C° 0.8 mm 7 mps 749 mmHg 91%

    Day after tomorrow, 22 February, Friday

    Time Temperature Precipitation Wind Pressure Humidity
    00:00 +5°C° 0.8 mm 7 mps 749 mmHg 90%
    01:00 +5°C° 0.8 mm 7 mps 749 mmHg 90%
    02:00 +5°C° 0.5 mm 7 mps 749 mmHg 90%
    03:00 +5°C° 0.5 mm 7 mps 750 mmHg 90%
    04:00 +5°C° 0.5 mm 7 mps 750 mmHg 90%
    05:00 +3°C° 0.4 mm 7 mps 751 mmHg 88%
    06:00 +1°C° 0.4 mm 8 mps 752 mmHg 86%
    07:00 -1°C° 0.4 mm 8 mps 753 mmHg 84%
    08:00 -1°C° 0 mm 8 mps 754 mmHg 78%
    09:00 -2°C° 0 mm 7 mps 756 mmHg 72%
    10:00 -2°C° 0 mm 7 mps 757 mmHg 66%
    11:00 -2°C° 0 mm 7 mps 758 mmHg 62%
    12:00 -2°C° 0 mm 6 mps 759 mmHg 57%
    13:00 -1°C° 0 mm 6 mps 760 mmHg 53%
    14:00 -2°C° 0 mm 6 mps 760 mmHg 51%
    15:00 -2°C° 0 mm 6 mps 761 mmHg 49%
    16:00 -2°C° 0 mm 6 mps 761 mmHg 47%
    17:00 -2°C° 0 mm 5 mps 762 mmHg 49%
    18:00 -4°C° 0 mm 5 mps 762 mmHg 51%
    19:00 -3°C° 0 mm 4 mps 763 mmHg 54%
    20:00 -4°C° 0 mm 4 mps 763 mmHg 53%
    21:00 -4°C° 0 mm 4 mps 764 mmHg 53%
    22:00 -4°C° 0 mm 4 mps 764 mmHg 52%
    23:00 -4°C° 0 mm 4 mps 765 mmHg 50%

    23 February, Saturday

    Time Temperature Precipitation Wind Pressure Humidity
    00:00 -4°C° 0 mm 4 mps 765 mmHg 48%
    01:00 -5°C° 0 mm 4 mps 765 mmHg 46%
    02:00 -5°C° 0 mm 4 mps 765 mmHg 44%
    03:00 -5°C° 0 mm 3 mps 765 mmHg 42%
    04:00 -5°C° 0 mm 3 mps 765 mmHg 40%
    05:00 -5°C° 0 mm 3 mps 765 mmHg 39%
    06:00 -5°C° 0 mm 3 mps 765 mmHg 38%
    07:00 -6°C° 0 mm 3 mps 766 mmHg 37%
    08:00 -5°C° 0 mm 3 mps 766 mmHg 35%
    09:00 -5°C° 0 mm 3 mps 766 mmHg 33%
    10:00 -4°C° 0 mm 3 mps 767 mmHg 31%
    11:00 -4°C° 0 mm 3 mps 766 mmHg 29%
    12:00 -2°C° 0 mm 2 mps 766 mmHg 27%
    13:00 -2°C° 0 mm 2 mps 766 mmHg 25%
    14:00 -1°C° 0 mm 2 mps 766 mmHg 26%
    15:00 -1°C° 0 mm 2 mps 765 mmHg 27%
    16:00 -1°C° 0 mm 2 mps 765 mmHg 28%
    17:00 -2°C° 0 mm 2 mps 765 mmHg 31%
    18:00 -1°C° 0 mm 1 mps 765 mmHg 34%
    19:00 -1°C° 0 mm 1 mps 765 mmHg 37%
    20:00 -1°C° 0 mm 1 mps 765 mmHg 37%
    21:00 -1°C° 0 mm 1 mps 765 mmHg 37%
    22:00 -2°C° 0 mm 0 mps 765 mmHg 37%
    23:00 -2°C° 0 mm 0 mps 765 mmHg 36%

    24 February, Sunday

    Time Temperature Precipitation Wind Pressure Humidity
    00:00 -2°C° 0 mm 0 mps 765 mmHg 35%
    01:00 -1°C° 0 mm 0 mps 765 mmHg 34%
    02:00 -1°C° 0 mm 0 mps 765 mmHg 34%
    03:00 -1°C° 0 mm 0 mps 764 mmHg 34%
    04:00 -1°C° 0 mm 0 mps 764 mmHg 33%
    05:00 0°C° 0 mm 1 mps 764 mmHg 35%
    06:00 -1°C° 0 mm 1 mps 764 mmHg 36%
    07:00 -1°C° 0 mm 1 mps 764 mmHg 37%
    08:00 0°C° 0 mm 1 mps 764 mmHg 33%
    09:00 +1°C° 0 mm 1 mps 764 mmHg 30%
    10:00 +2°C° 0 mm 1 mps 764 mmHg 27%
    11:00 +2°C° 0 mm 2 mps 763 mmHg 27%
    12:00 +2°C° 0 mm 2 mps 763 mmHg 27%
    13:00 +3°C° 0 mm 2 mps 763 mmHg 28%
    14:00 +3°C° 0 mm 2 mps 762 mmHg 33%
    15:00 +3°C° 0 mm 2 mps 762 mmHg 38%
    16:00 +4°C° 0 mm 1 mps 762 mmHg 43%
    17:00 +3°C° 0 mm 1 mps 762 mmHg 45%
    18:00 +2°C° 0 mm 1 mps 762 mmHg 48%
    19:00 +1°C° 0 mm 1 mps 762 mmHg 51%
    20:00 +1°C° 0 mm 1 mps 763 mmHg 52%
    21:00 +1°C° 0 mm 1 mps 763 mmHg 53%
    22:00 0°C° 0 mm 1 mps 763 mmHg 54%
    23:00 0°C° 0 mm 1 mps 763 mmHg 55%

    25 February, Monday

    Time Temperature Precipitation Wind Pressure Humidity
    00:00 -2°C° 0 mm 2 mps 763 mmHg 55%
    01:00 -2°C° 0 mm 2 mps 763 mmHg 56%
    02:00 -2°C° 0 mm 2 mps 762 mmHg 56%
    03:00 -1°C° 0 mm 2 mps 762 mmHg 56%
    04:00 -1°C° 0 mm 2 mps 762 mmHg 56%
    05:00 -1°C° 0 mm 2 mps 762 mmHg 57%
    06:00 -1°C° 0 mm 2 mps 762 mmHg 59%
    07:00 -2°C° 0 mm 2 mps 762 mmHg 60%
    08:00 0°C° 0 mm 3 mps 762 mmHg 58%
    09:00 +1°C° 0 mm 3 mps 762 mmHg 57%
    10:00 +2°C° 0 mm 3 mps 762 mmHg 55%
    11:00 +3°C° 0 mm 4 mps 762 mmHg 56%
    12:00 +4°C° 0 mm 4 mps 761 mmHg 57%
    13:00 +5°C° 0 mm 4 mps 761 mmHg 59%
    14:00 +5°C° 0 mm 4 mps 761 mmHg 64%
    15:00 +5°C° 0 mm 4 mps 761 mmHg 70%
    16:00 +5°C° 0 mm 3 mps 760 mmHg 75%
    17:00 +4°C° 0 mm 3 mps 761 mmHg 79%
    18:00 +3°C° 0 mm 3 mps 761 mmHg 83%
    19:00 +2°C° 0 mm 3 mps 762 mmHg 86%
    20:00 +2°C° 0 mm 3 mps 762 mmHg 86%
    21:00 +1°C° 0 mm 3 mps 762 mmHg 85%
    22:00 +1°C° 0 mm 3 mps 762 mmHg 84%
    23:00 0°C° 0 mm 3 mps 762 mmHg 85%
    Show more